• In Uzbekistan
  • List of Countries
  • For 7 days
  • Water Temperature
  • Satellite Maps
  • Weather Map
  • Weather Widgets
  • user-avatar
    Login

    Hourly Weather Gjirokaster

    Today, 22 January, Monday

    Time Temperature Precipitation Wind Pressure Humidity
    00:00 -1°C° 0.1 mm 5 mps 640 mmHg 94%
    01:00 -2°C° 0 mm 6 mps 640 mmHg 94%
    02:00 -3°C° 0.1 mm 6 mps 640 mmHg 93%
    03:00 -3°C° 0.1 mm 6 mps 641 mmHg 92%
    04:00 -4°C° 0.1 mm 6 mps 641 mmHg 91%
    05:00 -4°C° 0 mm 6 mps 642 mmHg 91%
    06:00 -5°C° 0 mm 6 mps 642 mmHg 90%
    07:00 -6°C° 0 mm 5 mps 642 mmHg 89%
    08:00 -5°C° 0 mm 5 mps 643 mmHg 82%
    09:00 -4°C° 0 mm 5 mps 644 mmHg 75%
    10:00 -2°C° 0 mm 5 mps 644 mmHg 67%
    11:00 -2°C° 0 mm 6 mps 645 mmHg 64%
    12:00 -2°C° 0 mm 6 mps 645 mmHg 62%
    13:00 -1°C° 0 mm 6 mps 645 mmHg 59%
    14:00 -1°C° 0 mm 5 mps 645 mmHg 61%
    15:00 -1°C° 0 mm 5 mps 646 mmHg 63%
    16:00 -2°C° 0 mm 4 mps 646 mmHg 66%
    17:00 -3°C° 0 mm 4 mps 646 mmHg 69%
    18:00 -4°C° 0 mm 4 mps 646 mmHg 72%
    19:00 -5°C° 0 mm 3 mps 646 mmHg 76%
    20:00 -5°C° 0 mm 3 mps 646 mmHg 75%
    21:00 -5°C° 0 mm 3 mps 647 mmHg 74%
    22:00 -5°C° 0 mm 3 mps 647 mmHg 73%
    23:00 -5°C° 0 mm 3 mps 647 mmHg 72%

    Tomorrow, 23 January, Tuesday

    Time Temperature Precipitation Wind Pressure Humidity
    00:00 -4°C° 0 mm 2 mps 647 mmHg 71%
    01:00 -4°C° 0 mm 2 mps 648 mmHg 70%
    02:00 -4°C° 0 mm 2 mps 648 mmHg 68%
    03:00 -3°C° 0 mm 2 mps 648 mmHg 66%
    04:00 -3°C° 0 mm 2 mps 648 mmHg 65%
    05:00 -3°C° 0 mm 2 mps 648 mmHg 64%
    06:00 -3°C° 0 mm 2 mps 648 mmHg 63%
    07:00 0°C° 0 mm 1 mps 649 mmHg 62%
    08:00 +1°C° 0 mm 1 mps 649 mmHg 59%
    09:00 +2°C° 0 mm 1 mps 650 mmHg 55%
    10:00 +3°C° 0 mm 1 mps 651 mmHg 52%
    11:00 +3°C° 0 mm 1 mps 651 mmHg 52%
    12:00 +3°C° 0 mm 1 mps 651 mmHg 52%
    13:00 +4°C° 0 mm 1 mps 651 mmHg 52%
    14:00 +3°C° 0 mm 1 mps 651 mmHg 56%
    15:00 +2°C° 0 mm 2 mps 651 mmHg 60%
    16:00 +2°C° 0 mm 2 mps 651 mmHg 64%
    17:00 +1°C° 0 mm 2 mps 652 mmHg 66%
    18:00 -1°C° 0 mm 2 mps 652 mmHg 68%
    19:00 -2°C° 0 mm 2 mps 652 mmHg 69%
    20:00 -2°C° 0 mm 2 mps 652 mmHg 69%
    21:00 -3°C° 0 mm 2 mps 653 mmHg 69%
    22:00 -3°C° 0 mm 2 mps 653 mmHg 69%
    23:00 -3°C° 0 mm 2 mps 653 mmHg 69%

    Day after tomorrow, 24 January, Wednesday

    Time Temperature Precipitation Wind Pressure Humidity
    00:00 -4°C° 0 mm 2 mps 653 mmHg 69%
    01:00 -5°C° 0 mm 3 mps 653 mmHg 69%
    02:00 -5°C° 0 mm 3 mps 654 mmHg 70%
    03:00 -5°C° 0 mm 3 mps 654 mmHg 70%
    04:00 -6°C° 0 mm 3 mps 654 mmHg 71%
    05:00 -6°C° 0 mm 3 mps 654 mmHg 71%
    06:00 -6°C° 0 mm 3 mps 655 mmHg 71%
    07:00 -6°C° 0 mm 3 mps 655 mmHg 72%
    08:00 -3°C° 0 mm 2 mps 656 mmHg 66%
    09:00 -2°C° 0 mm 2 mps 657 mmHg 60%
    10:00 +1°C° 0 mm 2 mps 657 mmHg 55%
    11:00 +2°C° 0 mm 2 mps 657 mmHg 52%
    12:00 +3°C° 0 mm 1 mps 658 mmHg 49%
    13:00 +4°C° 0 mm 1 mps 658 mmHg 47%
    14:00 +4°C° 0 mm 1 mps 658 mmHg 50%
    15:00 +3°C° 0 mm 1 mps 657 mmHg 54%
    16:00 +3°C° 0 mm 1 mps 657 mmHg 58%
    17:00 +2°C° 0 mm 1 mps 657 mmHg 61%
    18:00 -2°C° 0 mm 2 mps 657 mmHg 63%
    19:00 -3°C° 0 mm 2 mps 657 mmHg 66%
    20:00 -3°C° 0 mm 2 mps 657 mmHg 66%
    21:00 -4°C° 0 mm 2 mps 657 mmHg 67%
    22:00 -4°C° 0 mm 2 mps 657 mmHg 67%
    23:00 -4°C° 0 mm 2 mps 657 mmHg 67%

    25 January, Thursday

    Time Temperature Precipitation Wind Pressure Humidity
    00:00 -4°C° 0 mm 2 mps 657 mmHg 67%
    01:00 -5°C° 0 mm 2 mps 657 mmHg 66%
    02:00 -5°C° 0 mm 2 mps 657 mmHg 65%
    03:00 -5°C° 0 mm 2 mps 657 mmHg 64%
    04:00 -5°C° 0 mm 2 mps 657 mmHg 64%
    05:00 -5°C° 0 mm 2 mps 657 mmHg 62%
    06:00 -5°C° 0 mm 2 mps 657 mmHg 61%
    07:00 -5°C° 0 mm 2 mps 657 mmHg 59%
    08:00 -3°C° 0 mm 2 mps 657 mmHg 54%
    09:00 +1°C° 0 mm 1 mps 658 mmHg 49%
    10:00 +3°C° 0 mm 1 mps 658 mmHg 43%
    11:00 +3°C° 0 mm 1 mps 658 mmHg 43%
    12:00 +4°C° 0 mm 1 mps 658 mmHg 43%
    13:00 +5°C° 0 mm 1 mps 657 mmHg 42%
    14:00 +4°C° 0 mm 1 mps 657 mmHg 49%
    15:00 +4°C° 0 mm 1 mps 657 mmHg 55%
    16:00 +3°C° 0 mm 1 mps 656 mmHg 61%
    17:00 +2°C° 0 mm 1 mps 656 mmHg 65%
    18:00 +1°C° 0 mm 1 mps 656 mmHg 69%
    19:00 -1°C° 0 mm 0 mps 656 mmHg 73%
    20:00 -1°C° 0 mm 1 mps 656 mmHg 72%
    21:00 -1°C° 0 mm 1 mps 655 mmHg 72%
    22:00 -1°C° 0 mm 1 mps 655 mmHg 72%
    23:00 -1°C° 0 mm 1 mps 655 mmHg 70%

    26 January, Friday

    Time Temperature Precipitation Wind Pressure Humidity
    00:00 -1°C° 0 mm 1 mps 655 mmHg 69%
    01:00 -1°C° 0 mm 1 mps 655 mmHg 68%
    02:00 -1°C° 0 mm 1 mps 655 mmHg 67%
    03:00 -2°C° 0 mm 1 mps 654 mmHg 65%
    04:00 -2°C° 0 mm 1 mps 654 mmHg 64%
    05:00 -2°C° 0 mm 1 mps 654 mmHg 63%
    06:00 -4°C° 0 mm 2 mps 654 mmHg 62%
    07:00 -4°C° 0 mm 2 mps 654 mmHg 62%
    08:00 -2°C° 0 mm 2 mps 654 mmHg 58%
    09:00 +1°C° 0 mm 2 mps 655 mmHg 55%
    10:00 +4°C° 0 mm 1 mps 655 mmHg 52%
    11:00 +3°C° 0 mm 2 mps 655 mmHg 53%
    12:00 +4°C° 0 mm 2 mps 655 mmHg 53%
    13:00 +5°C° 0 mm 2 mps 655 mmHg 54%
    14:00 +4°C° 0 mm 2 mps 655 mmHg 59%
    15:00 +4°C° 0 mm 2 mps 655 mmHg 64%
    16:00 +3°C° 0 mm 2 mps 654 mmHg 69%
    17:00 +3°C° 0 mm 1 mps 654 mmHg 74%
    18:00 +2°C° 0 mm 1 mps 654 mmHg 78%
    19:00 0°C° 0 mm 1 mps 654 mmHg 82%
    20:00 0°C° 0 mm 1 mps 654 mmHg 83%
    21:00 -2°C° 0 mm 2 mps 654 mmHg 83%
    22:00 -2°C° 0 mm 2 mps 655 mmHg 83%
    23:00 -2°C° 0 mm 2 mps 655 mmHg 82%

    27 January, Saturday

    Time Temperature Precipitation Wind Pressure Humidity
    00:00 -3°C° 0 mm 2 mps 654 mmHg 82%
    01:00 -3°C° 0 mm 2 mps 654 mmHg 81%
    02:00 -3°C° 0 mm 2 mps 654 mmHg 80%
    03:00 -3°C° 0 mm 2 mps 654 mmHg 79%
    04:00 -3°C° 0 mm 2 mps 654 mmHg 78%
    05:00 -3°C° 0 mm 2 mps 654 mmHg 77%
    06:00 -3°C° 0 mm 2 mps 654 mmHg 76%
    07:00 -3°C° 0 mm 2 mps 655 mmHg 75%
    08:00 -1°C° 0 mm 2 mps 655 mmHg 69%
    09:00 +1°C° 0 mm 2 mps 656 mmHg 63%
    10:00 +3°C° 0 mm 2 mps 657 mmHg 58%
    11:00 +4°C° 0 mm 2 mps 657 mmHg 55%
    12:00 +5°C° 0 mm 2 mps 657 mmHg 53%
    13:00 +5°C° 0 mm 2 mps 657 mmHg 51%
    14:00 +5°C° 0 mm 2 mps 657 mmHg 56%
    15:00 +5°C° 0 mm 1 mps 657 mmHg 61%
    16:00 +5°C° 0 mm 1 mps 657 mmHg 66%
    17:00 +4°C° 0 mm 1 mps 657 mmHg 69%
    18:00 +2°C° 0 mm 1 mps 657 mmHg 73%
    19:00 +1°C° 0 mm 1 mps 657 mmHg 77%
    20:00 +1°C° 0 mm 1 mps 657 mmHg 77%
    21:00 +1°C° 0 mm 1 mps 657 mmHg 77%
    22:00 0°C° 0 mm 1 mps 657 mmHg 77%
    23:00 0°C° 0 mm 1 mps 657 mmHg 77%
    Show more